Theta_e
321 321 320 320 319 318 319 317 318 318 318 318 316 317 318 316 317 316 315 316 316 317 317 316 318 318 318 320 322 326 329 330 331 331 332 332 331 332 333 334 334 334 334 333 332 331 330 329 325 323 327 329 327 328 331 332 333 334 334 335 335 332 333 335 335 333 329 328 331 332 333 336 338 337 336 336 336 336 337 337 336 335 335 335 334
321 321 321 320 320 319 319 317 318 318 318 318 315 316 317 315 316 316 314 316 315 316 316 316 317 318 319 320 321 324 326 328 330 331 331 331 331 331 332 333 333 334 334 334 332 330 329 327 325 324 326 329 329 328 331 333 332 333 334 335 335 334 333 334 332 329 326 326 329 332 334 336 336 336 337 336 335 336 337 336 335 336 336 335 335
322 322 321 320 320 320 319 318 318 318 317 317 315 316 317 315 316 315 314 315 315 315 316 315 316 317 318 320 321 323 324 326 329 330 331 330 330 330 331 332 332 333 334 334 334 331 328 326 325 324 325 328 330 330 332 333 332 333 334 334 335 336 334 333 332 330 328 327 330 334 335 335 335 335 336 336 335 335 335 334 334 334 336 336 335
322 322 321 321 320 319 319 317 318 318 317 316 315 315 315 315 315 315 315 315 314 315 315 314 316 317 317 319 321 322 323 325 327 328 329 330 330 330 330 332 333 333 334 334 334 332 328 324 325 325 325 327 330 331 333 333 332 331 332 333 333 333 335 335 332 331 328 327 331 336 336 334 335 334 334 333 334 334 333 334 333 333 335 335 335
322 322 321 321 320 319 318 317 317 318 317 316 315 315 315 315 315 314 314 314 314 315 315 314 315 317 317 318 320 321 323 325 325 326 327 328 329 329 329 332 333 333 334 334 334 332 329 327 326 327 325 327 330 332 332 332 334 332 332 334 333 332 334 334 332 329 326 326 330 334 336 336 336 334 333 330 331 332 332 331 331 332 334 335 335
322 321 321 320 319 319 318 317 317 318 317 315 315 315 315 315 314 314 314 314 313 314 314 314 315 316 317 318 319 321 322 323 323 324 325 326 329 329 329 330 332 333 333 334 333 331 330 329 328 327 327 329 331 330 329 330 334 334 332 334 335 335 335 333 332 330 328 329 330 332 334 335 333 332 332 330 330 331 330 330 330 331 333 335 336
322 321 321 320 319 318 318 317 317 317 316 315 315 314 314 314 314 314 313 313 314 314 313 314 315 315 316 317 319 320 321 321 322 323 324 325 327 329 329 329 332 333 333 333 332 330 330 330 329 328 328 329 329 328 327 330 334 333 332 332 332 334 337 334 331 330 330 332 332 331 332 331 329 329 329 330 331 329 329 330 331 332 333 334 335
322 321 320 320 319 318 317 317 317 316 316 315 315 314 314 314 313 313 313 313 313 313 313 314 314 314 315 317 318 319 320 321 321 322 323 324 326 328 328 328 331 333 332 333 332 330 330 330 329 329 327 327 328 327 328 331 333 333 332 332 331 332 336 337 334 330 329 330 330 330 331 330 328 327 326 329 330 328 328 329 331 332 332 332 334
321 321 320 319 319 318 317 317 317 316 315 315 315 314 314 313 313 313 312 313 313 313 313 313 314 314 315 316 317 318 318 320 321 321 322 324 325 327 328 328 331 333 332 331 331 330 330 329 328 329 328 327 327 327 328 330 332 332 332 332 332 331 332 335 336 334 329 326 328 329 330 330 329 328 328 329 329 327 326 327 330 330 327 328 332
319 321 320 319 318 318 317 317 316 315 315 315 315 314 313 313 313 312 312 312 313 312 312 313 314 314 314 315 316 317 317 319 320 321 321 323 325 326 328 327 329 332 332 330 329 330 330 329 328 328 326 326 326 326 328 330 330 331 333 332 332 332 331 331 332 333 331 326 327 329 328 329 329 328 329 329 330 329 328 329 331 330 327 328 331
319 320 320 318 318 318 317 316 316 315 315 314 314 314 313 313 312 312 312 312 313 312 312 313 313 314 314 315 315 316 317 318 320 320 320 322 324 325 327 327 328 331 332 330 329 329 329 329 329 327 325 325 325 326 327 328 328 329 329 331 332 331 330 331 330 332 332 328 329 330 328 328 329 328 327 328 329 330 330 332 333 331 332 333 332
319 319 319 319 318 317 317 316 315 315 314 314 314 313 313 312 312 311 312 312 312 313 313 313 312 313 314 314 314 315 316 317 319 320 320 321 322 324 325 327 328 330 331 331 330 329 328 329 328 325 325 325 324 324 326 327 328 329 329 331 331 328 327 330 329 330 333 331 331 332 330 330 331 328 327 327 329 329 328 331 333 334 335 334 332
319 319 318 318 318 317 316 315 315 315 314 313 313 313 312 312 311 311 312 312 312 312 313 313 312 313 313 313 314 314 316 317 317 318 319 320 321 322 323 325 328 329 330 331 329 329 329 329 327 325 325 326 323 321 322 324 327 329 329 329 328 326 326 327 327 328 331 333 334 333 331 332 333 331 329 328 330 330 328 330 334 335 334 331 329
318 319 317 317 317 316 315 315 315 314 313 313 313 313 312 311 311 311 312 312 312 312 312 313 312 312 312 313 314 314 315 316 316 318 319 319 320 321 322 324 326 328 329 330 329 328 328 328 328 328 327 327 325 322 321 322 324 326 327 326 325 325 325 326 328 328 330 333 335 333 332 334 334 332 330 329 329 330 329 330 334 335 334 332 329
318 317 317 317 317 316 315 315 315 313 313 313 312 312 311 311 310 311 311 312 312 312 312 313 313 312 312 313 314 314 314 314 315 316 317 318 318 319 320 322 324 326 327 328 328 328 327 327 329 330 329 329 327 326 326 326 327 327 327 327 325 324 324 325 326 327 331 335 333 331 333 335 334 330 330 330 330 331 331 330 333 335 334 332 330
317 317 317 317 317 316 315 315 314 313 312 312 312 312 311 310 310 311 311 311 312 312 312 312 312 312 313 313 313 314 314 314 314 315 316 317 318 318 319 321 322 323 325 326 327 327 327 328 328 328 327 328 327 326 326 328 330 331 329 327 326 325 324 323 323 324 329 333 333 333 334 334 331 329 329 332 332 332 332 331 332 333 333 332 331
317 317 317 317 316 315 315 314 313 313 312 312 312 311 310 310 310 310 311 311 312 312 312 312 312 312 313 313 313 313 313 313 314 314 315 315 317 318 318 319 320 320 321 323 325 326 326 327 327 326 325 325 325 325 325 325 327 329 329 327 326 325 324 323 322 322 325 329 332 334 334 331 329 328 328 332 334 333 333 332 331 332 333 333 333
317 317 316 316 316 315 314 314 313 312 312 312 311 310 310 310 310 310 311 311 311 312 311 312 312 312 313 313 313 312 313 313 314 314 314 314 315 317 317 318 319 319 319 320 322 325 326 326 326 326 326 325 323 323 325 324 323 325 327 327 326 325 324 323 322 322 324 326 329 332 333 329 327 329 329 331 333 332 332 332 332 333 333 334 334
316 315 315 316 315 315 314 313 313 312 312 311 311 310 310 310 310 310 310 311 311 312 311 311 312 312 312 312 312 312 313 313 313 314 314 314 315 316 317 317 317 318 319 319 320 321 324 325 325 325 326 326 324 324 325 324 321 322 325 327 326 325 324 323 322 322 326 328 328 331 333 329 327 329 330 331 331 330 332 334 334 334 334 334 334
316 316 315 315 315 314 314 313 313 312 311 311 310 310 310 310 310 310 310 311 311 311 311 311 312 312 312 312 312 312 313 313 314 314 314 314 314 314 315 316 316 317 318 319 318 318 320 322 324 324 324 324 324 324 324 323 322 320 321 324 325 325 324 323 321 322 328 330 330 331 330 328 327 328 329 332 332 331 332 333 332 333 333 333 333
316 316 315 315 314 314 313 313 312 312 311 310 310 310 310 309 310 310 310 310 310 311 311 311 312 311 311 312 312 312 313 314 314 314 315 315 315 315 315 315 315 316 317 318 318 318 318 319 320 322 322 322 322 322 322 322 322 321 319 320 322 323 323 322 320 321 326 329 330 331 329 328 327 325 327 330 331 331 331 330 329 330 331 331 333
316 316 315 315 314 314 313 312 312 311 311 310 310 309 309 309 309 310 310 310 310 310 311 311 311 311 311 312 312 312 313 314 314 315 315 316 316 316 316 315 315 316 316 317 318 318 318 317 318 320 320 321 321 322 321 321 321 321 321 320 320 321 321 321 320 321 323 326 329 331 331 331 330 328 330 331 330 329 329 327 326 326 325 326 332
316 315 315 314 314 313 313 312 312 311 311 310 309 309 309 309 309 309 310 310 310 310 311 311 311 312 312 312 312 313 313 314 315 315 316 316 317 317 317 317 316 316 316 317 317 318 318 317 318 319 320 320 320 321 321 321 321 321 320 319 320 320 320 320 321 321 321 323 328 331 332 333 333 333 333 331 328 327 327 325 323 323 324 327 331
315 315 314 314 314 313 312 312 312 311 311 310 309 309 309 309 309 309 309 310 310 310 310 310 311 312 312 312 312 313 313 314 315 316 316 317 317 317 317 317 317 317 317 317 317 317 318 317 317 318 320 320 320 320 320 320 320 320 320 319 319 319 319 320 320 320 321 321 324 328 331 332 333 333 332 329 328 328 327 326 325 326 330 333 334
315 315 315 314 314 313 313 312 312 311 311 310 310 309 309 309 309 309 309 310 310 310 310 310 311 311 312 312 312 312 313 314 315 315 316 317 317 318 317 317 317 317 318 318 318 317 317 317 317 318 318 319 319 319 319 319 319 320 320 319 319 319 319 319 319 319 321 320 320 325 331 332 331 331 330 329 329 330 329 328 328 329 331 333 334
315 314 314 314 314 313 313 312 312 311 310 310 309 309 309 309 309 309 309 309 309 310 310 310 311 311 312 312 312 312 313 314 314 315 316 317 317 317 317 317 317 317 318 318 318 318 318 318 318 318 318 319 319 319 318 318 319 319 320 319 319 319 319 319 320 319 319 320 319 321 328 332 329 328 329 329 328 329 329 329 329 330 330 330 330
314 314 314 314 314 313 313 312 312 311 310 310 309 309 308 309 309 309 309 309 309 310 310 310 311 311 311 311 312 312 313 314 314 316 316 316 316 316 316 316 316 317 317 317 317 318 318 318 318 318 319 319 319 319 318 318 318 319 319 319 319 319 320 321 321 320 319 320 319 319 324 329 329 327 328 328 327 328 328 327 327 328 328 328 328
314 314 314 314 314 313 313 312 311 311 310 310 309 308 308 308 309 309 309 309 309 309 310 309 310 310 311 311 311 313 313 314 315 315 315 315 315 315 315 315 316 316 316 316 317 317 318 318 318 318 318 319 319 319 318 318 319 319 319 319 319 318 319 320 320 321 320 320 319 319 321 324 326 326 326 327 328 329 328 328 327 328 329 329 330
315 314 314 314 313 313 313 312 311 310 310 309 309 309 308 308 309 309 309 309 309 309 309 309 309 310 310 311 312 313 313 314 314 314 314 314 314 314 315 315 316 316 316 316 315 316 317 318 319 319 318 319 319 318 318 318 318 319 319 319 319 318 318 319 320 322 321 320 320 320 321 322 323 323 324 325 327 328 328 328 329 330 330 329 330
314 314 314 313 313 313 312 311 311 310 310 309 309 309 308 308 308 309 309 309 309 309 309 309 309 309 310 311 312 312 313 314 314 313 313 313 314 314 315 315 315 315 315 315 314 315 316 317 318 319 319 319 319 318 318 318 318 319 319 320 320 319 319 319 320 321 321 321 322 322 323 324 324 323 322 323 324 325 327 328 329 330 330 330 331
314 314 314 313 313 312 312 311 311 310 310 309 308 308 308 308 308 309 309 309 308 309 309 309 308 309 310 311 311 311 312 313 313 312 313 313 314 314 314 314 314 314 314 314 314 314 316 316 317 319 319 319 319 319 319 318 318 318 319 320 320 320 320 320 321 321 321 321 322 323 324 324 324 323 323 322 322 322 323 325 326 327 329 330 330
314 314 313 313 312 312 312 311 310 310 309 309 308 308 308 308 308 308 309 309 308 309 309 308 308 309 309 310 310 311 312 312 312 312 312 313 313 313 313 313 313 313 312 313 314 315 316 317 317 318 319 319 319 319 318 318 318 318 318 319 319 319 320 321 322 322 322 322 322 323 323 323 323 323 323 322 321 321 321 322 322 323 324 325 327
314 313 313 313 312 312 311 311 310 309 309 308 308 308 308 308 308 308 308 308 308 309 309 308 308 309 309 310 310 310 311 311 311 312 312 312 312 312 312 312 313 313 312 312 314 315 316 317 317 318 318 318 318 318 318 318 318 318 318 318 318 318 319 319 321 322 322 322 323 322 323 323 323 323 324 323 323 322 322 321 321 320 319 319 321
314 313 313 313 312 312 311 310 310 309 309 308 308 308 308 308 308 308 308 308 308 309 308 308 308 309 309 310 310 310 310 310 311 311 311 312 312 312 311 311 312 312 312 313 313 314 315 316 317 317 318 318 318 318 318 317 317 317 317 317 316 317 317 318 320 321 321 321 321 322 322 323 323 324 324 323 323 323 323 323 321 321 320 320 320
313 313 313 313 312 312 311 310 309 309 308 308 308 307 307 307 307 308 308 308 308 308 308 308 308 309 309 309 309 309 310 310 310 310 311 311 311 311 311 311 312 312 312 312 312 313 314 315 316 317 317 317 317 318 317 316 316 316 317 316 315 315 316 317 318 319 320 319 319 319 321 322 322 322 322 322 322 323 323 323 322 322 322 323 324
314 313 313 313 312 311 311 310 309 308 308 308 307 307 307 307 307 308 308 308 308 308 308 308 308 308 309 309 309 309 309 309 309 310 310 310 310 311 311 311 312 312 312 312 312 312 312 313 314 314 315 315 316 316 316 315 315 317 317 317 316 316 316 317 317 318 319 319 319 319 320 321 321 321 321 321 321 321 321 321 321 321 321 322 323
314 313 313 312 311 311 310 309 308 308 308 307 307 306 307 307 307 307 308 308 308 307 308 308 308 308 308 308 309 309 309 309 309 309 309 309 309 310 310 311 311 312 311 311 311 311 310 310 311 312 313 313 313 314 314 314 315 316 317 318 318 318 318 318 318 319 320 320 321 321 321 321 321 321 320 320 320 321 321 320 320 320 320 320 321
314 313 312 312 311 310 310 309 308 308 308 307 307 306 307 306 307 307 307 308 308 307 307 307 308 308 308 308 308 308 308 308 308 308 308 309 309 309 309 310 311 311 311 311 311 311 311 310 309 310 311 311 311 311 311 312 313 315 316 317 318 318 317 318 318 319 320 320 320 320 320 320 320 320 320 320 320 321 321 321 320 320 320 320 320
313 313 312 311 311 310 309 308 308 308 308 307 306 306 306 306 306 307 307 307 307 307 307 307 307 307 308 308 308 308 308 308 308 308 308 308 308 308 309 310 310 310 310 310 310 311 311 310 309 309 310 310 309 310 310 311 312 313 314 316 317 318 317 317 318 318 319 319 319 319 319 319 319 319 319 319 319 319 319 319 320 320 320 320 320
313 312 312 311 310 310 309 309 308 308 308 307 307 306 306 306 306 307 307 306 306 306 306 306 307 307 307 307 308 308 308 308 307 307 307 307 308 308 308 309 309 310 310 310 310 310 310 310 309 309 309 309 308 309 309 310 311 311 312 313 315 315 315 316 317 318 318 317 317 317 318 318 318 318 317 317 317 317 316 316 316 317 317 317 317
313 312 311 311 310 310 309 309 308 308 307 307 307 307 306 306 306 306 306 306 306 306 306 306 306 306 307 307 307 307 307 307 307 307 307 307 307 308 308 308 309 309 310 309 310 310 310 310 309 309 309 309 308 308 309 309 310 311 311 311 312 312 312 314 315 317 317 316 315 316 317 317 316 317 316 316 316 315 315 315 315 315 316 316 316
313 312 311 311 310 310 309 309 308 308 307 307 307 307 306 306 306 306 306 306 306 306 306 305 305 306 306 306 306 306 307 307 307 307 307 307 307 308 308 308 309 309 309 309 309 309 310 309 309 309 309 309 308 308 308 309 309 310 311 311 311 312 312 312 313 314 314 314 315 315 315 315 316 316 316 316 315 315 315 316 316 316 316 316 316
313 312 312 311 310 310 310 309 308 308 307 307 307 307 306 306 306 306 305 305 305 305 305 305 305 305 306 306 306 306 307 306 306 307 307 306 307 307 307 308 308 309 309 309 309 309 309 309 309 309 309 308 308 307 307 308 309 310 311 311 311 312 312 312 312 313 313 313 314 314 314 314 315 315 315 316 316 316 316 316 317 317 317 317 316
313 313 312 310 310 310 310 309 309 308 307 307 307 307 306 306 306 306 305 305 305 305 305 305 305 304 305 305 306 305 306 306 306 306 306 306 306 306 307 307 307 308 308 308 309 309 309 309 309 309 308 308 307 307 307 308 310 310 311 311 311 312 312 313 313 313 312 312 312 313 313 313 314 314 315 316 316 316 316 316 316 317 318 318 318
313 313 312 310 309 310 310 309 309 308 307 307 307 307 306 306 306 305 305 306 305 305 305 305 306 305 304 305 306 306 305 305 306 306 306 306 305 305 306 307 307 307 307 307 307 307 308 308 308 308 308 308 306 305 306 308 309 310 310 311 311 311 311 312 312 312 311 310 310 310 310 311 312 313 314 315 315 315 315 316 317 317 317 318 318
313 313 312 311 310 310 309 309 309 309 308 307 307 307 306 307 306 305 305 306 305 306 306 305 305 306 306 305 305 306 306 305 304 306 306 306 305 303 302 305 307 307 307 307 307 307 307 307 307 307 307 306 304 304 306 307 307 308 309 310 310 310 310 310 311 311 310 310 310 310 310 310 311 311 311 312 314 315 314 315 315 316 316 316 317
313 313 312 311 310 310 310 309 308 309 308 308 308 307 306 306 306 305 305 306 305 305 306 305 306 306 306 305 305 305 306 304 302 302 303 305 305 301 297 299 304 306 306 307 307 307 307 306 306 307 306 304 302 303 304 304 305 306 308 309 310 310 310 310 310 310 310 310 309 309 309 309 309 309 309 309 310 311 312 312 312 312 313 313 314
313 313 312 311 311 310 309 309 309 308 308 308 308 308 307 307 306 306 306 306 305 305 305 306 307 306 306 306 305 304 306 305 303 300 298 299 302 300 296 295 298 300 302 304 305 306 305 304 304 305 303 301 300 300 300 300 301 303 306 308 310 309 309 309 309 309 310 310 309 309 309 308 309 309 309 309 308 309 308 308 308 308 309 310 310
314 313 312 312 311 310 310 310 309 309 309 309 308 308 308 308 307 306 307 307 306 305 305 306 307 307 306 306 306 305 305 306 306 304 299 297 296 296 295 295 296 296 297 298 299 301 301 299 299 299 299 298 298 297 297 298 298 299 302 306 308 309 309 309 309 309 309 308 307 307 307 307 307 307 306 306 306 305 304 303 303 303 303 304 305
314 313 313 312 312 311 311 310 310 309 309 309 308 307 308 308 307 306 307 307 306 306 306 306 307 307 305 305 307 307 306 305 306 306 305 302 299 296 294 294 295 295 295 296 296 297 297 296 296 296 296 296 296 296 296 296 296 297 298 301 304 307 308 308 307 307 307 306 305 304 304 304 303 302 301 301 301 301 301 300 300 299 299 299 300
315 314 313 313 312 312 311 311 310 310 310 309 308 307 308 308 308 307 307 306 306 307 307 307 307 307 305 304 306 306 305 306 306 305 306 306 305 302 297 294 294 295 294 295 295 295 295 295 295 295 295 295 295 295 296 296 296 296 297 298 299 301 303 303 304 304 305 305 304 304 304 304 303 302 302 301 300 299 299 298 298 298 297 295 296
Wind_Speed
9 9 11 11 9 10 9 10 11 12 13 15 19 18 18 20 21 22 21 19 19 19 20 18 16 16 15 15 11 9 9 9 9 10 11 11 12 14 15 17 18 23 32 34 32 33 34 33 33 32 28 27 30 32 29 26 27 25 21 19 18 19 19 19 19 17 15 15 13 12 9 9 11 10 8 9 8 8 9 8 7 7 7 7 6
8 7 9 10 8 9 8 10 10 11 12 14 18 16 17 20 20 21 21 19 18 18 20 18 16 15 15 16 15 13 13 12 11 10 11 11 12 13 15 17 19 21 29 36 36 33 35 35 35 34 32 28 29 31 28 24 26 26 21 19 20 21 22 20 20 18 17 16 14 14 12 9 11 11 9 9 9 9 9 9 9 9 7 7 7
7 7 8 8 8 8 7 9 9 10 11 13 16 16 17 19 19 20 20 18 18 19 20 18 16 15 14 14 14 15 15 13 12 11 11 11 12 13 14 17 20 22 25 34 39 36 35 36 36 35 34 31 29 30 27 21 23 25 22 21 22 24 24 22 21 19 17 17 15 13 11 10 10 10 10 9 9 9 9 9 9 10 9 7 7
6 6 6 6 6 6 6 8 9 8 10 13 15 16 16 18 18 19 20 19 17 18 19 18 16 15 13 11 11 14 14 12 11 10 10 10 12 13 13 15 18 22 24 32 38 37 37 38 37 35 34 33 30 30 27 21 22 25 24 23 24 27 27 24 23 21 18 17 16 12 10 11 9 9 11 9 8 9 9 7 7 10 12 9 7
5 5 5 5 5 5 5 8 8 8 10 13 14 16 17 18 18 18 19 18 17 18 19 18 17 16 15 12 12 13 12 11 12 12 12 11 12 13 13 14 15 20 24 31 35 34 36 37 36 34 33 33 29 28 27 21 20 23 23 24 27 28 26 24 24 23 19 18 18 14 10 9 10 11 11 10 9 9 9 7 6 8 10 11 9
5 4 4 4 4 4 4 7 7 7 9 12 13 15 16 17 17 18 18 18 18 19 18 16 18 18 17 16 15 15 14 14 16 16 17 16 15 14 14 13 14 17 21 29 33 32 33 33 32 32 32 32 29 28 28 23 20 23 24 25 27 24 22 24 26 25 22 20 20 16 11 9 11 13 13 11 10 10 10 9 9 9 10 12 12
6 5 4 3 2 3 4 6 7 7 9 11 13 15 16 17 17 17 18 17 17 18 17 15 16 17 16 16 16 15 16 17 17 18 18 18 16 15 15 13 13 14 16 24 32 34 31 29 28 28 30 31 30 29 29 26 23 22 22 22 24 22 19 22 26 26 24 23 22 18 13 10 10 12 14 12 11 11 10 11 11 11 10 11 12
5 6 5 3 1 3 4 5 6 7 8 11 13 15 16 17 17 17 17 17 17 17 17 15 15 16 15 16 16 14 15 16 15 17 18 17 15 14 14 12 10 12 11 16 28 34 31 28 26 25 26 30 31 30 29 29 25 20 17 17 20 23 21 22 24 26 24 23 22 19 15 12 10 11 13 11 11 12 11 12 12 11 9 10 11
5 6 6 3 2 2 3 4 6 7 9 12 13 15 16 17 17 17 16 17 18 18 17 14 13 14 14 15 16 15 15 15 15 17 18 17 15 13 12 11 9 13 10 11 23 30 28 26 26 23 23 27 31 30 29 29 27 23 19 18 18 18 19 22 23 24 23 22 22 20 16 14 12 12 12 11 10 11 13 13 13 11 11 11 11
6 6 5 4 3 2 2 4 6 8 10 12 14 15 16 16 16 16 16 17 19 19 17 15 13 12 13 15 15 16 15 14 15 17 17 16 14 13 10 10 8 12 14 13 19 24 23 25 26 23 20 20 24 28 27 26 26 24 21 21 20 17 17 18 20 22 23 22 23 22 18 17 16 15 14 13 11 10 13 14 13 13 13 12 12
9 8 7 6 3 1 2 4 7 8 11 14 15 16 16 16 16 15 16 17 18 18 17 16 14 12 13 13 14 15 15 14 15 16 16 15 13 13 11 9 8 7 14 15 16 18 19 22 22 21 20 19 20 22 23 23 24 24 23 23 23 20 17 14 15 20 24 25 25 22 20 21 20 17 16 15 13 12 13 12 11 12 11 11 11
11 11 9 8 4 2 2 5 7 9 12 14 16 16 16 16 16 16 17 18 17 16 16 15 15 13 12 12 13 14 14 14 15 15 16 15 13 13 12 9 7 4 10 15 15 15 16 16 18 22 21 19 19 19 18 20 21 23 24 25 24 23 20 16 15 17 21 25 27 24 23 23 21 19 17 16 14 13 12 12 11 12 13 13 12
10 11 10 9 5 2 4 6 8 10 13 15 16 17 16 16 16 16 16 19 18 16 16 15 14 14 12 11 12 13 13 13 13 14 14 14 13 13 13 9 6 3 5 12 15 16 16 14 15 22 22 18 18 18 18 18 19 20 22 23 23 23 20 17 16 15 19 25 28 28 26 24 22 20 18 16 14 12 14 15 13 12 15 14 13
12 11 10 8 6 5 4 5 7 10 13 15 16 17 16 15 16 16 15 18 19 17 16 15 13 13 12 12 12 12 12 12 11 12 12 12 12 12 13 10 5 4 0 7 12 16 17 15 13 16 20 20 19 18 17 18 18 18 18 19 20 19 17 14 11 12 20 26 28 28 28 26 25 23 20 17 15 13 15 16 15 14 16 15 13
14 10 8 9 8 6 3 4 6 9 13 15 15 17 16 14 15 16 16 17 19 17 16 15 13 12 12 12 12 11 11 11 10 10 10 9 10 10 11 9 6 4 2 2 6 11 14 16 15 14 14 15 14 14 15 16 17 16 16 17 17 16 16 14 9 9 17 24 26 28 31 29 24 22 20 17 16 15 14 14 15 15 16 15 14
10 6 9 9 8 5 2 3 5 10 13 14 15 16 15 15 16 16 16 16 18 17 16 15 14 12 11 11 11 10 10 10 10 10 9 8 8 8 8 9 8 7 6 4 4 7 9 12 14 15 14 12 10 10 12 13 14 15 17 16 14 13 13 13 12 14 17 21 24 27 29 26 22 21 21 19 18 17 14 13 14 16 16 15 13
5 10 9 7 5 2 1 4 6 10 14 14 14 15 14 16 17 15 15 16 17 17 16 15 14 13 11 10 10 11 10 10 9 10 10 8 7 6 6 7 9 9 8 7 7 8 9 8 8 11 14 13 12 10 10 12 12 13 15 16 14 13 13 11 12 15 18 20 24 26 23 21 21 21 22 21 18 17 16 14 14 17 17 14 12
10 10 7 4 3 2 3 5 6 10 13 13 13 15 14 15 16 15 15 16 15 17 17 16 14 13 12 10 11 11 10 10 9 9 9 8 7 5 4 6 9 10 9 9 8 9 10 10 8 9 11 14 17 15 11 13 15 12 12 13 14 14 15 15 14 13 15 20 25 24 21 21 21 22 23 22 20 17 16 14 14 16 15 14 12
4 3 3 3 3 2 4 5 7 10 12 12 12 14 14 13 15 15 15 15 15 17 17 15 13 12 12 11 11 11 10 10 9 9 9 8 7 7 6 6 7 8 9 9 8 8 11 12 12 12 10 10 14 15 11 12 16 15 11 10 12 14 16 18 19 16 14 19 24 24 22 22 22 22 21 20 19 18 15 14 15 15 14 14 14
2 0 3 4 4 4 4 6 8 10 12 11 12 14 13 13 15 14 14 14 15 16 16 14 12 12 12 11 11 12 10 9 9 9 9 8 8 7 8 8 8 6 6 9 9 9 10 12 13 14 13 12 12 11 11 12 15 17 16 12 10 13 16 19 21 19 16 17 22 24 24 25 24 23 21 19 18 18 18 18 18 18 17 16 16
2 1 1 2 4 5 5 8 9 10 11 11 11 13 13 13 14 13 14 16 16 15 15 13 12 12 12 12 11 11 10 8 8 8 8 7 7 7 7 8 8 7 5 7 10 10 10 11 12 12 14 16 16 15 13 13 14 16 20 18 11 12 18 22 23 22 18 15 19 25 27 26 26 24 22 20 20 21 22 22 22 22 20 18 17
3 2 1 3 4 5 6 8 10 10 11 12 13 13 12 12 13 13 14 16 16 16 15 14 12 11 12 12 10 9 9 8 7 7 6 6 6 6 7 8 7 7 6 6 7 10 11 11 11 10 10 13 17 19 19 18 16 15 18 21 17 14 19 24 25 25 20 17 15 21 25 24 23 25 24 22 22 22 24 24 24 25 25 22 19
3 2 1 2 3 5 6 8 9 10 11 12 12 12 12 12 12 12 13 15 16 15 15 14 13 11 11 12 10 9 9 8 7 6 5 5 5 5 5 6 6 6 6 5 5 7 10 11 10 9 8 9 12 16 20 21 21 19 18 20 21 19 20 24 27 27 24 18 15 14 17 18 18 21 21 19 20 21 23 24 24 24 25 23 21
2 1 0 1 1 4 6 8 10 10 11 12 11 12 11 11 12 12 14 15 15 16 16 14 13 12 10 11 11 9 9 7 6 6 6 6 6 5 5 6 6 6 6 5 5 6 8 10 10 8 7 8 12 14 16 19 21 22 23 23 23 23 23 25 26 26 24 20 18 18 15 14 13 13 14 15 16 17 19 20 20 21 21 20 20
2 1 2 1 1 3 5 8 10 11 12 12 11 11 11 11 12 13 14 14 14 16 17 13 12 12 11 10 10 8 7 7 5 6 7 7 7 7 6 7 7 6 6 6 5 6 7 8 8 8 7 8 12 14 13 14 16 20 24 26 26 25 26 26 26 26 25 22 22 22 17 14 13 11 12 14 14 14 16 17 18 19 20 21 21
1 2 2 2 2 3 4 6 9 11 13 12 11 11 10 11 12 13 14 14 14 15 15 12 11 12 12 10 9 6 6 7 5 6 8 8 8 8 7 9 9 7 8 7 6 7 7 7 6 6 7 8 11 14 12 10 12 15 20 25 27 27 27 27 27 28 28 26 26 25 19 14 14 15 14 15 15 15 16 17 17 17 18 19 20
3 4 3 2 2 2 2 4 6 10 12 12 11 10 10 11 12 12 13 14 14 14 14 13 12 12 12 10 9 7 7 7 6 8 10 10 10 10 8 8 8 8 10 9 8 7 7 7 6 6 7 7 8 11 11 9 9 10 13 17 21 24 24 25 27 29 30 29 28 28 23 15 12 14 15 17 18 17 17 16 16 16 17 18 19
5 6 3 3 2 2 2 4 6 9 11 12 11 10 10 11 11 12 13 14 14 13 14 14 13 12 13 11 9 7 7 7 8 10 12 11 11 11 9 9 9 9 10 11 10 10 9 8 7 6 6 6 9 11 12 11 10 9 10 10 13 17 21 22 22 24 26 28 29 29 26 20 16 14 15 16 17 17 17 17 17 17 18 18 19
7 7 3 4 3 2 2 4 7 9 11 11 11 10 9 10 10 11 13 13 13 14 13 13 12 11 11 10 8 6 6 7 9 11 12 10 10 9 8 8 9 9 10 11 12 12 10 8 7 7 7 8 11 13 14 13 11 11 12 11 10 13 16 18 18 17 18 20 22 23 23 20 18 17 16 17 17 17 17 18 18 18 18 18 18
6 6 3 3 3 2 2 4 6 8 10 11 10 9 9 10 10 11 12 12 13 13 11 13 14 11 8 9 8 6 7 8 9 10 10 9 9 9 8 8 9 10 11 12 11 10 9 8 8 8 8 9 11 11 13 14 14 13 12 11 11 11 13 15 16 15 14 13 15 16 16 15 16 17 17 18 18 18 18 18 18 18 18 19 18
6 6 4 2 2 2 2 4 5 7 10 10 9 9 9 9 10 11 12 12 12 11 11 14 15 11 7 8 7 5 6 8 9 10 9 8 10 10 9 9 9 11 11 10 7 6 6 8 9 9 9 10 11 11 11 12 14 16 16 14 13 12 12 12 12 13 13 12 10 11 11 12 13 14 15 17 19 19 19 19 19 18 19 19 20
6 5 3 2 3 4 4 3 4 7 9 9 9 9 9 9 10 10 11 11 11 10 10 13 14 10 8 8 6 4 6 8 10 9 8 9 10 10 10 8 7 9 9 7 5 4 3 5 6 7 8 9 10 11 11 12 13 16 18 18 17 16 14 12 10 9 10 9 8 8 10 12 14 13 12 13 15 16 17 18 19 20 21 21 21
5 3 2 2 2 3 3 2 3 6 8 8 8 8 8 9 9 9 10 10 10 9 11 13 13 10 9 7 6 6 7 8 9 9 8 10 10 10 9 7 6 8 9 7 6 4 3 3 3 5 7 8 10 10 10 11 12 13 15 17 19 20 19 16 12 9 9 9 8 8 9 10 12 13 12 11 10 11 13 16 18 21 22 22 23
4 3 2 1 1 2 2 1 2 5 7 8 7 7 7 8 8 8 8 9 9 9 12 14 13 11 9 6 5 7 7 7 8 9 9 9 10 10 10 7 6 7 7 6 6 6 5 5 5 6 8 9 10 10 10 11 12 13 13 13 15 18 20 20 17 12 11 10 10 10 10 8 9 10 9 8 7 7 9 12 15 17 19 19 20
5 4 5 3 2 3 2 0 2 4 6 6 6 6 7 7 7 7 7 8 8 8 12 14 12 10 9 7 4 5 7 7 8 8 8 9 10 11 11 9 8 8 7 6 6 7 7 8 7 8 9 9 9 10 12 13 13 11 9 8 9 10 11 15 18 17 15 13 12 12 10 9 11 12 11 9 9 8 9 10 12 14 15 14 14
1 4 6 4 2 2 2 2 0 3 4 4 5 6 7 7 7 6 7 7 7 8 10 12 10 9 9 8 5 5 6 7 7 7 8 8 8 9 10 10 10 10 9 7 7 8 8 8 9 10 10 10 11 12 13 13 11 8 5 3 4 3 3 6 13 16 14 11 10 10 9 10 13 16 15 15 15 14 14 15 16 16 15 14 14
6 6 6 5 5 5 4 3 0 3 4 4 4 5 6 7 6 6 6 7 7 8 9 9 9 8 9 8 7 6 6 7 7 7 8 8 8 8 8 8 8 10 9 7 7 9 9 8 7 7 7 6 5 6 7 7 5 4 1 3 4 4 4 2 4 7 5 5 7 8 10 12 13 14 15 16 16 16 17 18 18 19 18 16 15
6 6 6 6 6 4 2 1 1 2 3 3 4 4 5 6 5 5 5 6 7 7 8 8 8 8 8 7 6 6 6 6 7 8 8 8 8 8 7 6 7 8 8 7 7 8 9 8 7 7 5 5 7 7 7 6 5 4 1 5 7 5 3 3 3 4 3 4 7 8 9 12 13 14 15 15 15 15 16 17 18 20 20 20 19
6 5 5 5 5 3 1 1 2 2 2 3 3 4 4 5 4 4 5 6 6 6 7 7 7 8 9 8 5 5 6 6 7 8 8 8 8 8 7 6 6 6 7 6 5 6 8 8 10 10 8 9 12 12 9 7 5 3 2 4 8 8 6 5 6 6 6 4 6 8 9 11 13 14 16 16 16 17 18 19 20 22 23 23 24
6 5 6 6 5 4 2 2 3 3 3 3 3 3 4 4 4 4 4 5 5 6 6 6 6 8 8 8 6 6 6 6 7 9 9 8 8 8 7 7 6 5 6 7 6 6 7 9 11 11 10 12 16 16 12 9 6 2 1 2 5 7 7 6 8 9 7 2 5 9 11 13 14 15 16 17 17 17 18 19 20 22 23 24 24
6 8 8 7 6 5 3 3 3 3 3 3 3 3 4 4 3 3 4 4 4 5 5 4 6 6 6 8 9 8 7 8 9 10 10 9 9 8 8 7 6 6 6 7 7 6 6 9 11 11 11 13 17 18 15 11 8 5 3 2 2 3 4 5 8 11 10 7 6 11 14 14 15 16 17 18 19 18 17 17 18 18 20 21 21
7 10 9 7 7 7 5 4 4 4 3 3 3 3 3 4 3 2 3 3 3 4 4 4 5 6 6 9 11 11 11 10 9 9 10 10 9 9 9 8 7 7 7 7 7 7 6 8 9 9 10 13 16 17 15 12 10 8 6 5 3 1 1 3 6 10 12 13 12 13 14 15 17 18 18 19 19 17 14 14 15 15 16 16 17
6 7 8 6 7 7 6 5 5 5 4 3 3 3 4 4 3 2 2 2 2 3 4 4 5 5 6 8 10 11 10 9 9 9 9 9 8 8 9 10 9 8 6 7 7 7 7 9 9 8 9 12 14 15 15 14 12 10 8 7 6 5 4 2 2 4 4 5 6 7 8 8 9 11 12 12 12 11 11 11 12 12 11 11 11
5 5 7 7 8 8 7 5 5 5 5 4 4 4 4 4 4 3 1 1 2 2 2 3 4 5 5 4 6 7 6 6 8 9 8 8 7 6 6 8 8 7 5 7 8 7 7 8 8 8 9 11 13 14 14 12 11 9 8 7 7 8 7 6 5 7 9 10 10 9 8 7 6 6 5 4 5 6 7 8 8 9 9 9 9
8 8 9 8 7 7 7 6 6 6 6 5 5 4 4 4 5 5 2 1 1 1 2 2 3 5 5 3 3 6 6 6 6 7 8 8 7 4 5 7 8 7 6 7 9 8 7 7 8 9 8 8 10 11 9 8 8 8 7 7 9 12 12 11 12 14 15 16 18 17 16 14 13 12 10 7 6 7 9 10 10 10 10 10 10
10 11 13 12 8 6 7 6 6 7 7 6 7 6 4 3 4 3 2 2 1 0 2 2 2 4 5 4 4 4 6 6 6 5 6 7 8 6 2 6 8 7 7 7 7 7 7 7 7 8 7 7 8 8 8 9 10 10 8 7 9 13 15 15 15 14 14 15 17 18 19 19 18 18 16 13 10 9 11 12 11 11 11 11 11
8 10 13 12 8 7 8 7 7 7 7 7 7 7 5 4 3 3 3 2 1 2 1 3 2 2 4 4 4 5 5 5 5 5 4 4 6 8 5 3 6 6 7 7 6 6 7 7 5 5 5 6 7 10 11 12 13 14 13 12 12 13 16 17 15 13 13 13 14 16 17 18 18 17 18 18 16 14 14 14 14 13 13 13 12
8 9 12 11 9 9 9 9 9 8 8 7 7 6 6 5 4 4 5 3 2 3 1 2 1 1 2 2 2 5 5 3 6 9 8 6 6 7 7 7 6 5 5 5 4 5 6 6 4 3 5 8 10 13 15 16 17 17 17 16 15 15 17 17 15 14 14 13 13 14 15 15 14 12 11 13 13 12 13 15 16 16 16 15 15
10 10 11 10 9 10 10 9 8 8 8 8 8 7 7 7 6 5 6 5 4 3 2 0 1 1 1 1 1 3 4 1 4 8 10 11 11 10 9 9 9 8 7 6 6 6 7 8 8 7 9 12 14 16 18 19 19 19 19 17 16 15 16 17 16 16 15 14 14 14 13 11 10 10 10 11 12 12 15 17 18 18 18 18 17
12 11 11 11 11 11 11 10 8 8 8 8 8 7 7 8 7 6 7 7 5 3 2 1 1 1 1 1 1 1 2 2 1 4 6 10 12 13 12 11 11 11 10 10 10 10 10 11 11 11 12 15 16 17 19 20 19 20 20 18 15 13 13 15 16 16 15 14 14 15 14 13 14 15 16 16 16 16 17 17 18 18 19 19 18
14 12 12 13 12 12 12 11 10 9 9 9 8 8 8 8 7 7 8 8 6 4 4 3 4 5 4 1 1 1 1 2 0 2 5 6 7 9 11 12 12 12 11 11 12 12 12 13 13 13 14 16 17 17 18 18 19 20 20 20 18 16 15 15 16 16 15 14 14 14 15 14 15 16 16 17 17 17 17 17 17 16 18 19 19
Wind_Direction
118 108 100 93 78 72 53 35 31 20 17 3 6 11 358 1 1 356 2 1 359 356 349 353 352 349 352 345 331 326 335 332 318 313 308 295 283 276 265 261 252 230 219 220 221 217 217 222 225 228 225 220 221 222 225 227 224 220 214 205 199 202 202 194 189 189 188 183 170 162 169 160 147 150 157 152 157 171 165 158 171 176 177 189 195
125 114 97 92 80 72 50 35 32 19 17 1 5 8 350 360 2 352 358 359 359 353 345 349 349 349 354 345 336 332 337 335 322 316 311 305 298 285 273 266 258 242 226 221 222 218 216 219 223 228 227 222 223 222 227 236 227 217 213 206 197 201 204 197 190 190 190 187 178 169 166 162 162 161 162 160 166 175 172 169 173 173 179 196 198
130 120 101 96 85 72 49 33 28 19 15 359 3 4 350 359 358 351 355 354 356 350 341 346 346 348 350 343 340 333 331 333 327 320 314 307 305 299 284 272 259 250 237 225 223 221 217 218 222 227 226 222 223 221 224 234 226 216 213 207 195 200 205 197 192 193 194 192 184 177 170 165 168 170 172 176 182 182 181 183 181 172 175 197 209
133 128 113 102 93 73 52 32 24 20 11 359 1 359 354 358 353 350 352 349 354 347 340 346 347 345 342 341 348 335 322 325 326 318 317 314 312 311 293 276 258 248 240 226 223 221 218 219 223 225 224 223 222 220 222 223 219 216 213 205 197 201 204 196 192 195 199 199 189 179 174 173 177 183 181 180 190 193 186 186 192 184 179 186 200
140 139 133 112 99 77 50 31 24 19 9 1 356 356 358 356 347 348 349 347 349 340 336 346 349 345 343 347 353 339 319 317 325 324 329 330 320 315 301 281 260 247 235 221 218 218 219 221 222 222 221 221 221 221 224 221 218 217 211 203 198 201 204 198 193 196 202 205 198 184 172 183 189 187 185 184 192 195 188 191 206 206 194 185 187
169 162 153 126 95 72 46 32 26 15 10 359 351 357 355 346 344 348 347 345 346 337 332 341 347 346 345 349 352 345 335 332 337 338 338 336 325 317 310 289 261 245 231 220 214 211 213 217 219 220 218 217 219 223 225 223 223 219 212 209 205 201 205 205 198 197 200 203 207 200 186 199 198 184 185 189 192 186 185 201 213 219 214 197 192
174 179 173 138 100 68 42 27 21 12 9 355 353 360 351 343 347 347 344 345 343 334 332 340 345 343 343 347 348 345 344 340 340 342 339 336 329 320 316 299 258 235 231 226 215 208 210 213 215 220 219 216 219 224 224 224 229 220 205 209 215 212 213 213 207 205 202 201 210 212 204 217 216 199 196 192 189 183 185 202 208 215 219 209 204
182 187 182 155 131 68 40 21 21 11 4 356 354 356 348 345 347 343 345 344 337 330 331 335 338 342 343 344 343 343 343 338 336 341 339 338 335 324 320 305 249 215 231 235 215 208 212 214 217 221 222 221 221 224 224 226 234 231 212 208 216 220 225 224 215 212 212 208 211 213 212 222 221 212 209 198 186 180 182 193 197 203 207 208 215
195 187 176 157 156 85 38 18 18 1 359 357 352 351 347 345 344 343 345 338 333 333 334 333 334 341 341 338 338 339 340 335 338 343 339 341 343 330 324 313 256 206 213 230 212 210 212 214 219 222 222 223 222 224 225 228 235 237 231 226 223 228 237 234 222 216 218 220 218 212 211 215 210 205 203 195 190 183 187 195 194 192 193 201 216
163 178 177 146 135 90 43 14 9 357 357 353 349 349 345 344 344 344 342 335 335 337 335 335 335 339 340 336 336 336 335 336 343 346 340 344 350 344 341 328 288 215 202 212 212 215 215 214 217 219 219 219 220 223 224 227 232 232 232 236 237 241 243 236 231 227 226 229 224 214 213 211 204 202 196 194 198 191 192 199 201 200 199 207 215
166 205 194 146 137 111 51 19 2 351 352 349 348 347 343 345 344 341 338 335 338 340 337 337 336 334 334 333 335 336 334 336 344 348 344 344 350 356 1 348 318 241 210 211 213 218 223 223 221 220 222 220 217 219 222 228 233 231 232 237 241 248 244 237 246 241 233 231 225 219 222 217 211 212 209 206 209 203 198 201 208 216 219 223 219
178 213 193 157 174 205 40 19 359 345 347 347 345 343 343 345 341 338 339 336 337 339 338 339 335 330 327 326 334 339 337 338 342 347 347 343 344 356 5 6 352 290 221 216 217 216 220 226 227 225 225 223 219 216 222 230 232 231 232 234 241 251 251 252 262 248 231 230 227 225 225 219 217 224 223 219 220 218 215 211 216 226 227 226 223
182 208 188 171 179 119 46 14 354 344 345 344 341 341 344 343 336 336 343 343 340 338 339 340 334 330 327 324 330 335 336 338 341 344 345 343 340 350 0 7 14 4 219 217 223 220 210 207 218 225 223 219 220 220 224 230 229 229 232 234 241 250 253 256 261 248 233 231 229 226 223 218 218 224 225 223 223 225 224 216 214 228 234 232 227
188 192 167 155 143 95 56 12 353 343 341 341 339 340 341 339 337 338 342 345 343 339 339 339 335 332 329 328 329 328 328 331 339 342 341 342 342 345 354 359 7 16 50 207 223 228 221 211 210 222 221 216 215 218 224 228 228 231 234 235 239 244 248 250 251 241 232 227 225 226 225 220 216 219 225 227 224 225 227 218 206 219 237 237 228
200 190 154 145 132 98 55 12 352 341 340 340 339 342 341 335 336 340 341 342 343 340 336 335 336 332 328 329 327 322 321 322 328 332 330 335 339 340 348 352 346 334 336 198 216 226 227 219 207 207 213 210 209 215 222 226 229 232 235 235 235 236 242 248 249 248 234 221 223 231 229 222 217 219 225 227 223 219 221 218 210 222 236 228 222
208 164 141 140 119 94 49 11 356 344 340 338 338 342 342 335 335 339 340 341 341 339 336 334 333 330 327 327 323 320 319 317 319 319 313 314 323 329 341 350 341 308 285 275 241 223 225 221 207 203 208 205 200 213 225 228 230 231 232 232 231 230 244 254 246 248 245 228 228 236 230 221 221 223 221 218 218 217 213 214 216 226 233 224 223
116 101 117 134 117 99 34 19 4 346 337 334 337 339 337 334 336 339 340 340 339 337 335 333 333 330 328 326 322 319 318 316 314 312 309 302 300 315 334 338 330 312 291 276 256 238 235 232 214 210 217 219 215 215 225 233 233 233 232 234 233 230 238 248 238 243 252 240 236 240 231 222 224 222 218 213 215 217 212 213 220 223 226 228 232
93 94 104 137 144 119 47 20 0 343 333 331 337 337 335 335 338 341 340 340 338 335 331 330 332 330 327 328 326 322 320 318 315 314 310 294 283 292 309 317 317 316 310 291 269 253 238 226 218 214 216 226 230 226 220 228 237 241 237 235 237 237 238 238 238 251 259 249 245 243 231 227 228 222 218 215 215 218 213 217 230 230 229 233 238
101 101 112 130 126 78 46 13 353 340 331 330 334 336 335 335 336 339 338 337 337 336 332 329 329 328 326 328 328 327 325 320 318 321 316 301 293 289 284 296 302 304 311 303 287 273 250 233 226 224 219 224 232 230 217 219 232 238 240 236 235 242 246 240 240 252 257 245 244 241 229 226 227 223 222 223 222 226 222 222 233 234 230 234 240
85 89 121 117 107 85 43 5 347 333 327 328 333 335 337 336 337 339 337 335 336 338 336 333 331 328 325 326 329 329 327 323 324 326 323 317 312 300 286 284 280 275 296 306 299 289 271 254 241 235 235 236 235 233 228 227 231 234 237 239 233 237 244 240 238 248 259 249 239 238 236 233 230 227 227 231 232 232 232 233 239 240 236 239 243
144 93 62 53 82 82 30 355 337 325 325 331 335 336 337 337 338 341 341 339 336 334 334 334 335 331 326 326 330 330 326 324 323 324 328 329 326 320 311 303 293 278 274 295 302 300 292 276 259 248 246 248 247 248 247 243 240 237 236 238 239 236 238 239 237 243 262 268 244 236 237 236 236 234 231 234 239 240 241 245 248 249 248 246 244
131 117 44 15 29 29 8 341 324 322 329 335 339 337 336 337 339 341 343 343 340 336 333 332 334 332 327 326 328 329 327 324 324 328 336 339 336 332 328 324 318 302 281 280 294 300 302 292 272 259 258 258 254 251 253 253 251 248 239 236 239 237 233 234 233 237 258 284 271 242 231 224 226 229 227 232 240 243 246 251 254 254 255 253 245
122 130 102 63 19 352 343 323 316 325 329 332 336 336 337 340 342 344 345 344 343 340 338 335 333 332 329 327 327 327 325 326 334 339 339 342 339 331 330 330 327 320 305 281 267 284 301 300 283 269 279 292 279 260 253 252 252 255 251 241 238 237 234 233 230 232 248 275 292 274 242 221 218 221 224 233 244 247 249 253 254 252 252 253 248
139 135 358 20 329 314 316 316 321 327 329 332 334 333 335 337 340 344 343 344 345 340 339 338 333 331 331 330 329 328 324 326 336 339 335 339 340 333 333 328 320 320 315 292 266 264 281 292 289 274 273 298 300 282 258 249 248 251 254 250 243 238 236 236 236 236 242 258 280 285 268 242 227 224 232 245 250 250 249 248 246 244 245 247 249
153 191 270 268 253 287 311 329 334 327 327 333 331 329 332 332 338 343 339 342 346 341 340 339 332 332 337 338 334 330 326 327 332 342 341 340 340 344 346 340 331 320 307 294 280 265 259 267 276 273 269 280 290 288 273 254 247 247 249 251 250 247 243 241 241 240 241 251 267 278 280 265 252 246 245 247 246 247 250 249 248 248 247 248 253
324 293 275 207 228 281 312 336 337 324 322 327 323 325 330 329 335 340 337 341 346 344 345 344 338 337 340 340 333 327 332 332 337 355 357 353 352 358 357 348 340 326 313 304 289 279 269 259 258 261 265 271 282 291 291 271 253 249 249 248 248 250 251 250 249 246 244 249 259 271 279 268 259 261 254 247 246 247 251 255 255 256 257 258 263
318 286 255 194 222 277 311 330 332 321 318 319 318 325 327 326 334 338 337 343 345 343 345 345 343 341 337 335 332 336 348 350 354 6 10 8 2 359 354 341 329 315 312 312 304 295 285 273 267 254 251 257 270 283 287 274 259 253 251 251 249 248 247 250 252 252 251 252 257 268 276 273 265 267 261 255 255 256 256 256 258 261 261 261 263
280 274 234 189 214 263 307 330 332 321 316 316 318 322 322 324 332 333 335 343 344 342 343 342 341 339 336 336 338 345 357 1 7 10 10 9 1 354 346 328 316 307 306 311 310 301 289 282 279 267 255 253 252 256 261 263 263 257 248 247 249 245 242 244 249 252 253 255 259 267 274 278 276 272 264 259 258 257 257 256 257 258 253 250 252
280 282 238 185 200 238 302 325 326 319 315 317 319 320 320 324 329 331 335 340 341 342 344 343 339 336 336 340 343 352 4 10 10 6 4 2 353 345 336 322 318 312 307 308 300 287 277 274 274 267 255 249 249 253 257 256 258 261 257 252 246 237 234 236 238 241 245 251 258 265 269 270 269 266 261 257 255 253 254 254 254 253 252 253 255
288 291 269 185 191 214 270 301 311 315 315 317 320 319 320 324 328 332 336 339 341 343 344 342 337 334 336 338 340 353 5 6 4 2 0 355 348 342 332 328 328 320 314 312 299 282 273 263 260 262 257 251 252 259 263 258 251 251 255 257 255 244 235 233 233 232 235 242 251 258 261 264 267 265 258 252 251 251 251 252 253 254 255 258 258
284 284 281 250 237 254 280 294 313 323 317 315 317 316 317 321 328 333 335 340 343 337 334 336 333 331 332 331 331 341 350 354 360 5 4 353 349 343 326 319 321 317 318 321 312 297 280 262 262 269 262 253 253 256 263 265 257 251 250 249 251 249 243 240 238 236 235 236 243 249 254 265 272 269 259 252 250 249 248 249 252 255 257 259 261
294 291 284 269 268 278 285 302 332 327 314 313 315 314 315 319 325 331 334 340 342 335 340 344 336 332 336 335 341 349 345 354 1 3 1 353 345 335 327 328 330 328 330 330 324 323 297 271 276 281 267 258 258 257 257 263 263 259 256 252 250 248 244 238 233 232 229 225 236 257 262 265 271 276 277 271 264 258 254 251 249 249 250 252 256
296 303 302 291 278 280 288 329 349 320 312 317 316 310 314 317 322 329 334 341 342 342 350 348 340 342 346 346 11 20 1 358 2 1 357 351 341 332 336 352 357 349 350 341 328 332 322 297 291 294 288 281 277 272 265 265 267 266 263 258 254 251 247 238 228 228 226 211 213 241 255 262 275 285 290 290 287 280 270 263 257 253 252 253 254
284 272 261 256 251 267 285 5 353 318 314 316 311 308 314 318 322 328 333 338 341 347 351 346 342 348 350 351 19 22 7 0 3 7 2 354 350 345 346 359 4 354 358 354 333 322 314 306 296 299 303 296 287 283 280 277 276 272 270 265 257 253 249 241 232 229 228 220 219 231 242 254 269 272 270 272 284 292 286 278 268 259 256 257 259
270 234 203 193 241 262 255 272 330 316 309 309 312 312 313 317 324 331 335 335 340 352 353 350 349 350 351 2 27 23 17 13 7 7 7 4 6 360 354 3 9 359 1 7 349 327 313 305 294 287 291 295 296 291 286 284 281 278 276 269 256 249 245 239 234 232 235 241 245 246 249 261 266 262 258 258 261 267 274 279 278 272 267 262 258
77 160 181 184 173 176 158 135 10 303 297 309 317 311 310 316 324 334 338 337 343 354 354 354 358 356 355 7 22 18 18 18 11 8 10 8 8 5 4 12 12 1 359 4 359 346 330 313 296 284 283 288 290 286 287 291 291 286 276 248 220 197 187 221 230 232 239 251 252 244 243 252 257 257 255 253 253 256 260 266 273 278 278 273 263
95 117 149 150 142 155 154 128 88 289 284 297 312 314 318 323 328 335 338 340 346 352 353 355 358 359 358 2 10 10 9 9 5 4 8 7 2 2 12 24 16 358 355 5 4 352 343 334 320 302 298 310 317 307 310 322 325 315 243 184 161 128 105 122 216 224 242 269 262 249 246 249 254 258 255 252 253 256 259 263 268 271 271 269 268
124 127 133 130 133 144 134 112 244 279 287 290 304 317 321 322 330 335 336 345 351 351 355 356 354 357 358 359 2 2 2 3 0 358 2 4 2 0 10 31 25 357 352 13 13 355 348 348 350 343 345 25 40 26 14 17 18 22 117 182 174 153 142 168 193 190 194 249 263 264 263 262 264 266 263 261 264 265 265 266 267 268 268 267 266
142 144 150 151 151 143 107 200 226 253 275 281 300 317 320 323 329 331 339 352 354 352 357 0 357 354 355 358 1 356 360 9 7 6 7 5 7 8 6 23 31 359 349 11 18 2 354 349 350 353 4 29 28 17 13 17 22 42 86 179 191 202 217 212 206 200 191 226 269 272 272 274 273 271 271 273 274 274 273 273 270 269 270 268 266
157 163 169 174 175 169 172 204 220 251 264 270 294 305 314 324 325 326 344 352 351 354 2 6 8 5 358 358 358 354 5 20 19 18 17 14 18 18 10 18 28 3 352 8 22 16 0 352 354 354 360 16 13 2 1 7 9 21 33 205 202 220 242 229 214 210 199 217 286 266 260 267 270 271 273 274 275 278 279 278 276 273 273 273 272
182 181 174 174 177 180 199 225 237 255 255 256 280 291 308 322 317 321 341 348 350 354 357 2 15 16 0 352 360 15 32 35 28 23 21 24 26 23 20 27 26 16 13 16 20 23 7 359 5 3 1 7 2 352 351 1 11 22 10 315 235 234 244 217 208 212 207 203 232 245 248 255 261 265 269 272 278 283 283 279 279 280 280 282 283
192 181 172 176 182 185 201 228 238 245 247 249 262 279 303 308 302 305 325 339 351 356 6 23 30 28 6 354 10 35 46 41 36 29 23 29 35 28 26 33 33 30 34 27 25 32 23 12 18 19 9 3 355 349 353 4 13 20 22 16 12 342 259 207 205 213 213 215 227 245 257 263 265 269 273 278 283 285 283 282 287 291 294 295 295
183 178 179 190 194 191 202 223 231 238 245 244 249 268 290 299 302 301 299 329 351 1 16 25 25 29 20 4 15 34 39 33 36 37 26 26 38 36 30 35 42 42 35 31 37 41 35 32 36 29 12 4 357 353 356 3 8 11 16 19 15 9 3 337 251 232 230 237 252 269 279 281 282 283 282 282 281 282 288 294 299 304 308 312 317
179 184 191 201 203 197 199 211 222 232 242 239 239 257 277 281 277 265 251 339 347 344 8 13 9 18 28 26 19 27 40 38 29 28 23 16 27 55 55 43 41 41 37 47 54 50 43 45 44 34 26 19 6 352 349 357 7 12 19 27 32 32 33 37 54 60 52 43 36 26 18 14 9 356 335 316 312 316 323 327 331 334 331 330 336
199 200 192 195 208 207 202 210 220 222 231 240 242 248 260 257 259 260 248 244 288 317 357 1 354 358 15 64 40 12 31 55 40 26 25 19 16 46 96 86 62 45 41 53 57 53 52 53 49 48 43 19 355 347 350 9 28 33 39 59 68 60 55 61 71 72 67 62 56 46 39 36 33 29 26 24 21 16 13 10 7 2 359 357 358
210 207 194 192 205 212 203 209 219 217 224 240 239 237 242 248 253 251 224 211 217 240 357 358 1 358 9 54 82 40 29 46 50 44 42 34 17 0 29 118 105 83 71 65 55 52 58 59 57 54 34 354 354 17 32 39 47 51 53 69 78 74 74 80 81 76 71 67 62 55 46 40 37 32 23 20 26 33 31 27 20 13 12 11 10
210 206 196 191 193 202 201 207 215 218 226 235 228 224 234 241 237 217 199 198 217 216 306 360 49 53 6 19 71 81 62 31 28 45 62 54 25 8 10 93 123 122 113 100 82 72 68 64 69 67 39 18 37 58 60 56 58 61 64 72 81 80 79 80 76 66 61 59 60 58 48 41 42 39 28 24 26 22 20 29 34 29 25 25 23
208 206 199 190 187 200 208 212 215 216 219 220 215 219 229 226 218 209 202 205 227 225 238 13 53 67 18 12 45 68 75 26 5 28 52 61 46 34 42 61 76 97 114 117 122 120 98 80 84 97 76 67 69 71 67 64 63 64 67 77 85 83 76 72 67 63 62 59 56 55 49 45 50 51 39 36 36 24 23 37 43 38 35 37 35
207 209 207 199 195 205 212 214 217 213 207 209 212 218 220 215 212 210 201 201 220 235 230 108 67 331 345 48 31 39 70 66 350 14 37 45 45 48 56 64 68 72 82 88 94 106 98 84 83 89 83 77 74 71 67 64 64 65 67 74 84 86 81 76 72 67 62 59 56 58 59 59 59 58 53 52 52 45 41 44 44 40 40 40 38
203 210 216 211 205 208 210 212 216 211 203 206 211 211 211 212 212 207 201 201 208 217 217 161 113 248 250 145 110 37 74 93 332 333 3 25 38 46 51 58 66 70 74 80 84 87 86 82 80 80 77 74 71 68 66 64 63 65 66 68 75 84 86 82 77 69 60 55 55 56 57 53 48 47 48 46 43 41 38 36 35 34 33 34 34
204 209 210 203 200 207 211 211 213 211 207 207 208 207 207 208 207 205 205 207 208 215 231 225 213 229 245 170 123 200 161 125 124 308 321 342 13 37 46 51 59 65 69 74 78 79 80 80 79 77 76 73 70 68 67 67 67 67 67 67 70 77 81 78 72 66 60 54 50 47 46 42 35 34 33 31 29 31 31 28 27 26 25 28 30